Location: Jetmore Oil Field
(38.1181°N, 99.9337°W)
Time: 15:33:42
(UTC+00:00)

SL-4 R/B - Pass Details

Date: 17 February 2020
Orbit: 428 x 667 km, 51.6° (Epoch: 30 March)

Event Time Altitude Azimuth Distance (km) Brightness Sun altitude
Rises 01:18:44 0° 312° (NW) 2,987 6.4 -12.4°
Reaches altitude 10° 01:21:30 10° 326° (NNW) 2,052 5.3 -12.9°
Maximum altitude 01:25:23 24° 21° (NNE) 1,293 3.7 -13.7°
Enters shadow 01:27:17 19° 57° (ENE) 1,488 3.7 -14.0°
